FW2969 Weather Reports


time (UTC)temp
F
wind
direction
speed
knots
gust
knots
rain 1hr
in
rain 24hr
in
rain mn
in
humidity
%
barometer
mb
20260903234538 67 154 0.0 0.9 0.00 0.00 0.00 92 1007.5
20260903233038 68 157 0.0 1.7 0.00 0.00 0.00 92 1007.4
20260903231544 68 161 0.0 0.9 0.00 0.00 0.00 92 1007.5
20260903230036 68 161 0.0 1.7 0.00 0.00 0.00 92 1007.5
20260903224538 69 161 0.0 0.9 0.00 0.00 0.00 92 1007.5
20260903223033 69 161 0.0 0.9 0.00 0.00 0.00 93 1007.5
20260903221531 69 162 0.0 1.7 0.00 0.00 0.00 94 1007.4
20260903220036 70 197 0.0 0.0 0.00 0.00 0.00 94 1007.5
20260903214530 70 197 0.0 0.0 0.00 0.00 0.00 94 1007.5
20260903213026 70 197 0.0 0.0 0.00 0.00 0.00 95 1007.6
20260903211533 70 176 0.0 0.0 0.00 0.00 0.00 95 1007.7
20260903210022 70 176 0.0 0.0 0.00 0.00 0.00 95 1007.8
20260903204521 70 176 0.0 0.9 0.00 0.00 0.00 95 1007.8
20260903203021 70 176 0.0 0.9 0.00 0.00 0.00 94 1007.7
20260903201521 70 176 0.0 1.7 0.00 0.00 0.00 94 1007.8
20260903200020 70 129 0.0 0.0 0.00 0.00 0.00 95 1007.8
20260903194525 70 129 0.0 0.9 0.00 0.00 0.00 94 1007.6
20260903193019 70 129 0.0 0.9 0.00 0.00 0.00 94 1007.7
20260903191528 70 129 0.0 0.0 0.00 0.00 0.00 94 1007.6
20260903190018 70 129 0.0 0.0 0.00 0.00 0.00 94 1007.6
20260903184518 70 336 0.0 1.7 0.00 0.00 0.00 94 1007.5
20260903183017 70 339 0.0 0.9 0.00 0.00 0.00 93 1007.5
20260903181517 70 337 0.0 0.0 0.00 0.00 0.00 93 1007.6
20260903180022 70 327 0.0 0.9 0.00 0.00 0.00 92 1007.6
20260903174520 70 328 0.0 0.9 0.00 0.00 0.00 92 1007.5
20260903173015 71 328 0.0 0.0 0.00 0.00 0.00 91 1007.3
20260903171515 71 328 0.0 0.9 0.00 0.00 0.00 91 1007.3
20260903170020 71 328 0.0 0.0 0.00 0.00 0.00 90 1007.0
20260903164513 71 328 0.0 0.0 0.00 0.00 0.00 89 1006.9
20260903163012 72 328 0.0 0.9 0.00 0.00 0.00 88 1006.8
20260903161513 73 328 0.0 0.9 0.00 0.00 0.00 87 1006.8
20260903160012 73 308 0.0 0.9 0.00 0.00 0.00 85 1006.8
20260903154511 75 297 0.0 0.9 0.00 0.00 0.00 83 1006.8
20260903153011 76 299 0.0 2.6 0.00 0.00 0.00 81 1006.8
20260903151511 77 261 0.0 1.7 0.00 0.00 0.00 79 1006.8
20260903150011 78 255 0.0 2.6 0.00 0.00 0.00 77 1006.8
20260903144508 78 259 0.9 2.6 0.00 0.00 0.00 76 1006.9
20260903143009 78 285 0.0 3.5 0.00 0.00 0.00 78 1006.8
20260903141506 78 259 1.7 6.1 0.00 0.00 0.00 76 1006.7
20260903140006 78 301 0.9 4.3 0.00 0.00 0.00 77 1006.7
20260903134505 79 309 0.9 5.2 0.00 0.00 0.00 76 1006.6
20260903133005 80 309 0.9 3.5 0.00 0.00 0.00 75 1006.5
20260903131504 80 299 1.7 5.2 0.00 0.00 0.00 74 1006.6
20260903130002 80 284 1.7 4.3 0.00 0.00 0.00 73 1006.6
20260903124503 80 300 1.7 8.7 0.00 0.00 0.00 74 1006.6
20260903123102 80 297 0.9 3.5 0.00 0.00 0.00 74 1006.6
20260903121559 80 261 0.9 4.3 0.00 0.00 0.00 74 1006.6
20260903120104 80 308 0.9 5.2 0.00 0.00 0.00 76 1006.8
20260903114601 79 233 0.9 7.8 0.00 0.00 0.00 79 1006.8
20260903113058 79 313 3.5 9.6 0.00 0.00 0.00 76 1006.9
20260903111553 80 329 2.6 7.8 0.00 0.00 0.00 78 1007.0
20260903110050 79 293 0.9 7.0 0.00 0.00 0.00 80 1007.1
20260903104550 78 326 1.7 8.7 0.00 0.00 0.00 82 1007.2
20260903103049 78 315 1.7 8.7 0.00 0.00 0.00 82 1007.3
20260903101556 78 272 1.7 7.8 0.00 0.00 0.00 83 1007.3
20260903100050 78 273 1.7 4.3 0.00 0.00 0.00 82 1007.3
20260903094612 78 321 0.9 7.0 0.00 0.00 0.00 81 1007.4
20260903093045 78 250 0.9 5.2 0.00 0.00 0.00 81 1007.5
20260903091543 77 271 0.9 5.2 0.00 0.00 0.00 84 1007.6
20260903090039 76 305 0.0 3.5 0.00 0.00 0.00 86 1007.8
20260903084538 75 259 1.7 4.3 0.00 0.00 0.00 88 1007.9
20260903083041 74 284 0.9 4.3 0.00 0.00 0.00 87 1008.1
20260903081536 75 300 1.7 7.8 0.00 0.00 0.00 86 1008.0
20260903080048 76 287 1.7 8.7 0.00 0.00 0.00 85 1008.0
20260903074532 76 303 0.9 5.2 0.00 0.00 0.00 83 1007.9
20260903073033 76 289 0.9 4.3 0.00 0.00 0.00 83 1007.8
20260903071531 76 293 0.0 2.6 0.00 0.00 0.00 81 1007.8
20260903070032 75 296 0.9 2.6 0.00 0.00 0.00 83 1007.8
20260903064530 75 321 0.9 2.6 0.00 0.00 0.00 84 1007.9
20260903063027 74 317 0.0 2.6 0.00 0.00 0.00 85 1007.8
20260903061527 73 300 0.0 1.7 0.00 0.00 0.00 86 1007.9
20260903060026 73 255 0.0 1.7 0.00 0.00 0.00 88 1007.9
20260903054525 72 305 0.0 2.6 0.00 0.00 0.00 91 1008.0
20260903053024 71 316 0.0 1.7 0.00 0.00 0.00 91 1008.0
20260903051524 70 334 0.0 1.7 0.00 0.00 0.00 91 1008.0
20260903050025 70 38 0.0 0.9 0.00 0.00 0.00 91 1008.1
20260903044523 70 68 0.0 1.7 0.00 0.00 0.00 91 1008.1
20260903043025 69 70 0.0 0.9 0.00 0.00 0.00 91 1008.3
20260903041521 69 70 0.0 0.9 0.00 0.00 0.00 90 1008.3
20260903040020 68 70 0.0 0.0 0.00 0.00 0.00 89 1008.2
20260903034520 68 70 0.0 1.7 0.00 0.00 0.00 88 1008.1
20260903033019 68 28 0.0 0.9 0.00 0.00 0.00 85 1008.0
20260903031519 68 28 0.0 0.0 0.00 0.00 0.00 84 1007.9
20260903030018 68 28 0.0 0.0 0.00 0.00 0.00 82 1007.8
20260903024517 68 28 0.0 0.0 0.00 0.00 0.00 81 1007.6
20260903023016 67 28 0.0 0.9 0.00 0.00 0.00 79 1007.6
20260903021518 67 28 0.0 0.9 0.00 0.00 0.00 78 1007.5
20260903020015 67 27 0.0 0.0 0.00 0.00 0.00 81 1007.4
20260903014514 66 27 0.0 0.9 0.00 0.00 0.00 83 1007.4
20260903013013 66 27 0.0 0.9 0.00 0.00 0.00 87 1007.6
20260903011509 68 28 0.0 0.9 0.00 0.00 0.00 89 1007.6
20260903010005 69 28 0.0 0.9 0.00 0.00 0.00 90 1007.8
20260903004504 70 27 0.0 0.9 0.00 0.00 0.00 89 1008.0
20260903003002 70 29 0.0 0.0 0.00 0.00 0.00 86 1008.1
20260903001606 71 29 0.0 0.9 0.00 0.00 0.00 84 1008.0
20260903000058 72 30 0.0 1.7 0.00 0.00 0.00 79 1008.2